Weather Roundup
Issued by NWS Corpus Christi, TX

Home | Current Version | Previous Version | Text Only | Print | Product List | Glossary On
Versions: 1 2 3 4 5 6 7 8 9 10 11 12 13 14 15 16 17 18 19 20 21 22 23 24 25 26 27 28 29 30 31 32 33 34 35 36 37 38 39 40 41 42 43 44 45 46 47 48 49 50
000
ASUS44 KCRP 290110
HRRCRP

SOUTH TEXAS REGIONAL WEATHER ROUNDUP
NATIONAL WEATHER SERVICE CORPUS CHRISTI TX
800 PM CDT TUE JUL 28 2015


TXZ229>244-290200-
...CORPUS CHRISTI AREA OBSERVATIONS...

CITY           SKY/WX    TMP DP  RH WIND       PRES   REMARKS
CORPUS CHRISTI PTCLDY    87  75  67 SE21      29.91R HX  96
NAS CORPUS CHR PTCLDY    83  77  82 SE20G25   29.92R HX  92
ROCKPORT       CLEAR     85  77  77 SE16G23   29.92S HX  95
KINGSVILLE NAS PTCLDY    86  77  74 SE20      29.90R HX  97
ALICE          CLEAR     88  74  63 SE14G22   29.89R HX  96
FALFURRIAS     CLEAR     89  75  62 E14G21    29.88R HX  99
$$

...VICTORIA AREA OBSERVATIONS...

CITY           SKY/WX    TMP DP  RH WIND       PRES   REMARKS
VICTORIA       CLEAR     87  74  64 SE16      29.94S HX  95
BEEVILLE       FAIR      86  75  68 SE9       29.91S HX  95
PLEASANTON     CLEAR     92  71  49 E17G23    29.88S HX  99
SAN ANTONIO    PTCLDY    93  70  46 SE20      29.90R HX  99
$$

...LAREDO AREA OBSERVATIONS...

CITY           SKY/WX    TMP DP  RH WIND       PRES   REMARKS
LAREDO         CLEAR    100  63  29 SE21G26   29.85R HX 102
COTULLA        PTCLDY   100  60  26 SE20      29.84R HX 100
DEL RIO        CLEAR     96  65  35 SE10      29.83R HX  98
MCALLEN        CLEAR     92  69  47 SE22      29.89R HX  97
HEBBRONVILLE     N/A     93  63  36 SE14G21   29.89R HX  94
$$

...OTHER TEXAS OBSERVATIONS...

CITY           SKY/WX    TMP DP  RH WIND       PRES   REMARKS
BROWNSVILLE    CLEAR     86  75  69 SE20      29.92R HX  95
HOUSTON        PTCLDY    90  73  57 S12       29.94R HX  98
COL. STATION   CLEAR     93  68  43 SE8       29.92S HX  97
AUSTIN         PTCLDY    93  65  39 S12       29.90R HX  95
WACO           CLEAR     94  64  37 SE13      29.90R HX  95
FORT WORTH     CLEAR     95  61  32 S13       29.89S HX  95
WICHITA FALLS  CLEAR     92  63  38 SE12      29.88R HX  93
LUBBOCK        PTCLDY    92  60  34 SE15      29.97R HX  91
EL PASO        MOSUNNY   96  49  20 S7        29.94R HX  93
$$

...MARINE OBSERVATIONS...

STATION/POSITION TIME  SKY/WX   TEMP    WIND        PRES    VSBY  WAVE   SWELL
                                AIR SEA DIR/SP/G                  HT/PER HT/PER
                 (UTC)          (F)     (DEG/KT/KT) (MB)    (MI)  (FT/S) (FT/S)
PORT ARANSAS     0100            83 85  130/ 14/ 16 1014.2R
BUOY 90 E PORT A 0050            86 86  150/ 12/ 14 1014.5R         3/ 6   2/ 6
BUOY 45 SE BAFFI 0050            84 84  150/ 14/ 17 1013.2R         3/ 6
BUOY 200 E PT IS 0050            86 87  140/  8/ 10 1015.6R         2/ 5   2/ 5
BUOY 15 E GALVES 0050            87 87  180/ 12/ 14 1014.4R         2/ 5
$$


USA.gov is the U.S. government's official web portal to all federal, state and local government web resources and services.